[[{"header":{"parameterUnit":"m.s-1","parameterCategory":1,"la1":30.2991,"la2":30.254,"lo1":-89.0895,"lo2":-89.0444,"dy":0.0017,"dx":0.0017,"nx":28,"ny":28,"refTime":"2023-09-04T09:00:00:Z","depth":0,"parameterNumber":2,"parameterNumberName":"U-component_of_WINDS"},"data":[0,0,0,0,0,0,0,0,0,0,0,0,0,0,0,0,0,0,0,0,0,0,0,0,0,0,0,0,0,0,0,0,0,0,0,0,0,0,0,0,0,0,0,0,0,0,0,0,0,0,0,0,0,0,0,0,0,0,-2.8457,-2.8456,0,-2.8378,-2.8378,-2.8377,-2.8317,-2.8316,-2.8315,-2.8315,-2.8233,-2.8231,-2.8229,0,0,0,0,0,0,0,0,0,0,0,0,0,-2.8554,-2.8552,-2.8457,-2.8456,-2.8455,-2.8379,-2.8378,-2.8376,-2.8317,-2.8316,-2.8315,-2.8315,-2.8233,-2.8231,-2.8229,0,0,0,0,0,0,0,0,0,0,0,0,0,-2.8497,-2.8552,-2.8457,-2.8416,-2.8411,-2.8379,-2.8377,-2.8376,-2.8317,-2.8316,-2.8315,-2.8314,-2.8234,-2.8231,-2.8229,-2.823,0,0,-2.8221,-2.822,0,0,0,0,0,0,0,0,-2.85,-2.8494,-2.8423,-2.8419,-2.8414,-2.8356,-2.8381,-2.8327,-2.8317,-2.8353,-2.8315,-2.8314,-2.8274,-2.8268,-2.8256,-2.8226,-2.8223,-2.8221,-2.822,-2.8218,-2.8218,0,0,0,0,0,0,0,-2.8504,-2.8497,-2.8426,-2.8422,-2.8416,-2.8401,-2.8392,-2.8371,-2.8319,-2.8349,-2.8345,-2.8337,-2.8272,-2.8258,-2.8253,-2.8222,-2.8221,-2.8219,-2.8217,-2.8216,-2.819,-2.8191,0,0,0,0,0,0,-2.8515,-2.85,-2.8428,-2.8423,-2.8456,-2.84,-2.839,-2.8376,-2.8319,-2.831,-2.8337,-2.8334,-2.8263,-2.8256,-2.825,-2.8248,-2.8218,-2.8216,-2.8215,-2.819,-2.8191,-2.8191,0,0,0,0,0,0,-2.8517,-2.8509,-2.8431,-2.8461,-2.845,-2.8399,-2.8384,-2.8375,-2.8361,-2.831,-2.83,-2.8333,-2.8262,-2.8254,-2.8236,-2.8244,-2.8215,-2.8213,-2.8189,-2.819,-2.8191,-2.8243,0,0,0,0,0,0,-2.852,-2.851,-2.851,-2.8461,-2.8448,-2.8419,-2.8384,-2.8374,-2.8357,-2.8352,-2.8303,-2.8295,-2.8261,-2.824,-2.8233,-2.824,-2.8211,-2.8188,-2.8189,-2.8191,-2.8241,-2.8246,-2.8251,0,0,0,0,0,-2.8524,-2.8527,-2.851,-2.8502,-2.8447,-2.8419,-2.8412,-2.8373,-2.8358,-2.8357,-2.8325,-2.8296,-2.8245,-2.8239,-2.8231,-2.8237,-2.8187,-2.8189,-2.819,-2.8238,-2.8245,-2.8251,0,0,0,0,0,0,-2.8577,-2.852,-2.8501,-2.8488,-2.8459,-2.8409,-2.8407,-2.8382,-2.8356,-2.8352,-2.8305,-2.8294,-2.8282,-2.8258,-2.8252,-2.8236,-2.8212,-2.8213,-2.8251,-2.8257,-2.8262,-2.8268,-2.8209,0,0,0,0,0,-2.8588,-2.8571,-2.8521,-2.8515,-2.8502,-2.8458,-2.8444,-2.8417,-2.8385,-2.8372,-2.8338,-2.8307,-2.8284,-2.827,-2.8246,-2.8238,-2.8226,-2.8238,-2.8243,-2.8248,-2.8248,-2.8243,-2.8247,-2.8197,-2.8197,-2.8197,0,0,-2.8609,-2.8576,-2.8567,-2.8525,-2.85,-2.8482,-2.8447,-2.843,-2.8417,-2.8369,-2.835,-2.8325,-2.8287,-2.8275,-2.8268,-2.8254,-2.826,-2.825,-2.8254,-2.8252,-2.8245,-2.825,-2.8254,-2.8199,-2.8198,-2.8198,0,0,-2.8639,-2.8612,-2.8604,-2.858,-2.8542,-2.8513,-2.8511,-2.8465,-2.8447,-2.8428,-2.8392,-2.8375,-2.8336,-2.8311,-2.8294,-2.8317,-2.8289,-2.831,-2.8337,-2.8332,-2.8336,-2.8339,-2.8347,-2.835,-2.8311,-2.8311,-2.8311,0,-2.8669,-2.8642,-2.8603,-2.8589,-2.8571,-2.8529,-2.8521,-2.8499,-2.8455,-2.8443,-2.843,-2.8381,-2.8353,-2.8334,-2.834,-2.8328,-2.8324,-2.8314,-2.8339,-2.8341,-2.8344,-2.835,-2.8354,-2.8314,-2.8314,-2.8314,-2.8313,0,-2.8682,-2.8664,-2.8662,-2.8622,-2.8604,-2.8593,-2.8552,-2.854,-2.8515,-2.8488,-2.8469,-2.8435,-2.8403,-2.8397,-2.8372,-2.8375,-2.8368,-2.8348,-2.8322,-2.8352,-2.8357,-2.836,-2.8318,-2.8317,-2.8316,-2.8316,0,0,-2.874,-2.868,-2.868,-2.8662,-2.8618,-2.8603,-2.8591,-2.8561,-2.8551,-2.8523,-2.8511,-2.848,-2.8461,-2.8441,-2.8414,-2.841,-2.843,-2.8389,-2.8388,-2.8397,-2.8431,-2.8446,-2.8449,-2.8413,-2.8413,-2.8413,-2.8434,0,-2.8761,-2.8737,-2.8702,-2.8689,-2.8672,-2.8632,-2.8621,-2.8594,-2.8568,-2.855,-2.8522,-2.8501,-2.8477,-2.8465,-2.846,-2.8429,-2.8436,-2.8427,-2.84,-2.84,-2.8409,-2.8452,-2.8468,-2.8488,-2.8436,-2.8436,-2.8436,0,-2.8783,-2.8758,-2.8743,-2.8702,-2.8694,-2.8684,-2.8655,-2.8638,-2.8606,-2.8588,-2.8568,-2.8538,-2.8523,-2.8503,-2.8481,-2.8476,-2.8463,-2.8447,-2.8447,-2.8441,-2.8418,-2.8447,-2.8494,-2.8497,-2.8439,-2.8439,-2.8439,0,-2.8826,-2.8789,-2.8775,-2.8761,-2.8713,-2.8707,-2.8687,-2.8654,-2.8639,-2.8614,-2.8603,-2.8577,-2.8561,-2.8541,-2.8506,-2.8494,-2.8488,-2.8464,-2.8472,-2.8473,-2.847,-2.8471,-2.8515,-2.8465,-2.8465,-2.8465,-2.8465,0,-2.8853,-2.8845,-2.8794,-2.8786,-2.8776,-2.8737,-2.8729,-2.8705,-2.8677,-2.8663,-2.8628,-2.8615,-2.857,-2.8553,-2.8525,-2.8511,-2.8505,-2.8489,-2.8482,-2.8492,-2.8493,-2.8481,-2.8478,-2.8466,-2.8466,-2.8466,-2.8465,0,-2.8898,-2.8864,-2.8846,-2.8803,-2.8792,-2.8787,-2.875,-2.874,-2.8714,-2.8697,-2.8691,-2.8649,-2.8627,-2.859,-2.8557,-2.8539,-2.853,-2.8518,-2.8541,-2.8536,-2.8545,-2.8544,-2.8581,-2.8584,-2.8534,-2.8535,-2.8535,0,-2.8916,-2.891,-2.8867,-2.8855,-2.8836,-2.8819,-2.8803,-2.8766,-2.8751,-2.8716,-2.871,-2.8686,-2.8664,-2.863,-2.8597,-2.8571,-2.8558,-2.8573,-2.8554,-2.8564,-2.8557,-2.8557,-2.8556,-2.8577,-2.8577,-2.8578,-2.8578,0,-2.8953,-2.8937,-2.8916,-2.8891,-2.8874,-2.8852,-2.8828,-2.8821,-2.8778,-2.8763,-2.8741,-2.8724,-2.8691,-2.8667,-2.8638,-2.8616,-2.859,-2.8585,-2.8585,-2.8594,-2.8608,-2.86,-2.8551,-2.8584,-2.8583,-2.8583,-2.8583,-2.8583,-2.8984,-2.8977,-2.8946,-2.8925,-2.8903,-2.8882,-2.8871,-2.8844,-2.8825,-2.8796,-2.8775,-2.8754,-2.8723,-2.8681,-2.8662,-2.8645,-2.8633,-2.8633,-2.8633,-2.8633,-2.8637,-2.8612,-2.8639,-2.8639,-2.8639,-2.8639,-2.8639,0,-2.9018,-2.8997,-2.8978,-2.8946,-2.893,-2.8909,-2.8882,-2.8869,-2.8851,-2.8825,-2.8805,-2.878,-2.8757,-2.8723,-2.8697,-2.869,-2.8678,-2.8685,-2.8684,-2.8679,-2.8649,-2.8651,-2.8695,-2.8695,-2.8695,-2.8695,-2.8695,-2.8695,-2.9034,-2.902,-2.9001,-2.8976,-2.8955,-2.8934,-2.8921,-2.8901,-2.888,-2.8854,-2.8835,-2.8814,-2.8784,-2.8757,-2.8735,-2.8726,-2.8717,-2.8728,-2.8715,-2.8687,-2.8681,-2.8676,-2.8678,-2.8727,-2.8727,-2.8746,-2.8746,-2.8746]},{"header":{"parameterUnit":"m.s-1","parameterCategory":1,"la1":30.2991,"la2":30.254,"lo1":-89.0895,"lo2":-89.0444,"dy":0.0017,"dx":0.0017,"nx":28,"ny":28,"refTime":"2023-09-04T09:00:00:Z","depth":0,"parameterNumber":3,"parameterNumberName":"V-component_of_WINDS"},"data":[0,0,0,0,0,0,0,0,0,0,0,0,0,0,0,0,0,0,0,0,0,0,0,0,0,0,0,0,0,0,0,0,0,0,0,0,0,0,0,0,0,0,0,0,0,0,0,0,0,0,0,0,0,0,0,0,0,0,2.9946,2.9947,0,2.9999,3.0,3.0,3.0054,3.0054,3.0055,3.0056,3.0107,3.0108,3.0108,0,0,0,0,0,0,0,0,0,0,0,0,0,2.9888,2.9889,2.9946,2.9947,2.9947,2.9999,3.0,3.0001,3.0054,3.0055,3.0055,3.0056,3.0107,3.0108,3.0109,0,0,0,0,0,0,0,0,0,0,0,0,0,2.9924,2.9889,2.9946,2.998,2.9984,2.9999,3.0,3.0001,3.0053,3.0055,3.0056,3.0057,3.0107,3.0108,3.0109,3.0093,0,0,3.0112,3.0112,0,0,0,0,0,0,0,0,2.9922,2.9926,2.9974,2.9978,2.9982,3.0021,2.9998,3.0032,3.0053,3.0027,3.0056,3.0057,3.0077,3.0081,3.0088,3.0096,3.0098,3.0112,3.0113,3.0113,3.0113,0,0,0,0,0,0,0,2.9919,2.9924,2.9967,2.9975,2.998,2.9992,2.9998,3.0005,3.0045,3.0029,3.0033,3.0039,3.008,3.0087,3.009,3.0099,3.0112,3.0113,3.0113,3.0114,3.0097,3.0096,0,0,0,0,0,0,2.9912,2.9922,2.9965,2.9969,2.9954,2.9992,2.9999,3.0007,3.0045,3.0052,3.0038,3.0041,3.0085,3.0089,3.0092,3.0077,3.0113,3.0114,3.0115,3.0098,3.0097,3.0096,0,0,0,0,0,0,2.9911,2.9915,2.9963,2.9946,2.9953,2.9992,3.0001,3.0008,3.0016,3.0052,3.0059,3.0039,3.0086,3.0091,3.0093,3.008,3.0114,3.0115,3.01,3.0098,3.0096,3.0047,0,0,0,0,0,0,2.9909,2.9915,2.991,2.9946,2.9954,2.9964,3.0,3.0008,3.0018,3.0022,3.0055,3.0061,3.0087,3.0091,3.0094,3.0082,3.0116,3.0101,3.0099,3.0097,3.005,3.0044,3.0039,0,0,0,0,0,2.9906,2.9893,2.9909,2.9914,2.9949,2.9963,2.9968,2.9999,3.0016,3.0011,3.0035,3.006,3.0081,3.0091,3.0095,3.0083,3.0102,3.0099,3.0097,3.0053,3.0045,3.0039,0,0,0,0,0,0,2.9853,2.9898,2.9917,2.9915,2.9935,2.9972,2.9967,2.999,3.0005,3.0009,3.0046,3.0053,3.0051,3.0067,3.0078,3.007,3.0095,3.0093,3.006,3.0053,3.0048,3.0044,3.0117,0,0,0,0,0,2.9841,2.985,2.9888,2.9883,2.9892,2.9927,2.9935,2.9958,2.9979,2.9988,3.0012,3.0031,3.0042,3.0049,3.0061,3.0053,3.0061,3.0046,3.0041,3.0036,3.0034,3.0031,3.0025,3.0088,3.0088,3.0088,0,0,2.9816,2.9842,2.9845,2.9873,2.9891,2.9898,2.9934,2.994,2.9946,2.9988,2.9993,3.0011,3.0035,3.0032,3.0032,3.0046,3.0018,3.0033,3.0029,3.0029,3.0028,3.0022,3.0017,3.0086,3.0087,3.0087,0,0,2.9775,2.9795,2.9793,2.9811,2.9839,2.9863,2.9862,2.9896,2.991,2.9915,2.9948,2.9954,2.9973,2.9989,2.9999,2.9965,2.9988,2.9968,2.9938,2.9935,2.993,2.9926,2.9914,2.9909,2.9966,2.9966,2.9965,0,2.974,2.9754,2.9789,2.9793,2.9805,2.9845,2.9843,2.9858,2.9887,2.9894,2.9909,2.9933,2.9952,2.9954,2.9946,2.9953,2.9953,2.9964,2.9929,2.9925,2.9921,2.991,2.9905,2.9963,2.9963,2.9963,2.9964,0,2.971,2.9718,2.9713,2.9742,2.9753,2.9754,2.9789,2.9795,2.9817,2.9839,2.9844,2.9869,2.9887,2.9889,2.991,2.9894,2.9902,2.9922,2.9947,2.9912,2.9902,2.9898,2.9959,2.996,2.9961,2.9961,0,0,2.9635,2.9685,2.9682,2.9697,2.973,2.9737,2.974,2.9759,2.9764,2.9783,2.9786,2.9801,2.9821,2.9833,2.9856,2.9853,2.9825,2.9874,2.9875,2.9864,2.9809,2.9794,2.9788,2.9841,2.984,2.984,2.9807,0,2.96,2.9609,2.9641,2.964,2.9648,2.9687,2.9689,2.971,2.9731,2.974,2.9763,2.9773,2.9798,2.9806,2.9805,2.9828,2.9814,2.9831,2.9843,2.9843,2.9836,2.9783,2.9767,2.9735,2.9804,2.9803,2.9803,0,2.956,2.9578,2.9578,2.9612,2.9617,2.9619,2.9639,2.9648,2.9672,2.9687,2.9701,2.9728,2.9732,2.9756,2.9763,2.9774,2.9781,2.9793,2.9793,2.9795,2.9821,2.9784,2.9726,2.9721,2.9797,2.9797,2.9798,0,2.9506,2.953,2.9534,2.9544,2.9584,2.9585,2.9601,2.9627,2.9636,2.9654,2.966,2.9677,2.9687,2.9699,2.9729,2.9744,2.9732,2.9759,2.9745,2.9744,2.9741,2.974,2.9683,2.9745,2.9745,2.9745,2.9745,0,2.9463,2.9462,2.951,2.9512,2.9512,2.9548,2.9546,2.9566,2.9589,2.9595,2.9629,2.9633,2.9673,2.9682,2.9705,2.9708,2.9711,2.9724,2.973,2.9721,2.9719,2.9726,2.9729,2.9744,2.9744,2.9744,2.9745,0,2.9403,2.9435,2.9442,2.948,2.9489,2.9487,2.9519,2.9522,2.9545,2.9553,2.9556,2.9592,2.9605,2.9637,2.9657,2.9673,2.9669,2.968,2.9661,2.9665,2.9649,2.965,2.9594,2.9588,2.9653,2.9653,2.9652,0,2.9374,2.9374,2.9412,2.9419,2.9435,2.9445,2.9456,2.9492,2.9501,2.9529,2.9528,2.9544,2.9559,2.9577,2.9604,2.962,2.9632,2.9611,2.9635,2.9626,2.9632,2.9632,2.9632,2.9606,2.9605,2.9604,2.9604,0,2.9318,2.9334,2.9349,2.9368,2.938,2.9397,2.9416,2.942,2.946,2.9469,2.9483,2.9494,2.9516,2.9531,2.9551,2.9567,2.9592,2.9596,2.9594,2.9585,2.9574,2.958,2.9647,2.9597,2.9598,2.9599,2.9599,2.9599,2.9273,2.9275,2.9302,2.9317,2.9335,2.9352,2.9357,2.9382,2.9394,2.9416,2.9436,2.9448,2.9472,2.9502,2.9517,2.9526,2.9539,2.9536,2.9535,2.9533,2.9529,2.9572,2.953,2.953,2.9531,2.9531,2.9531,0,2.9219,2.9239,2.9252,2.9278,2.929,2.9314,2.9336,2.9343,2.9354,2.9375,2.9389,2.9405,2.942,2.9449,2.9466,2.9468,2.948,2.9472,2.9472,2.9475,2.9517,2.9517,2.9462,2.9462,2.9462,2.9462,2.9462,2.9462,2.9193,2.9198,2.9217,2.9231,2.9251,2.9264,2.9275,2.929,2.9308,2.9325,2.9337,2.9357,2.9381,2.9401,2.9415,2.9423,2.9428,2.9416,2.9427,2.9466,2.9472,2.9478,2.9479,2.9416,2.9416,2.9385,2.9385,2.9385]}]]